Location: Brantley
(31.5822°N, 86.2569°W)
Time: 20:45:22
(UTC+00:00)

Injun/Solrad 3 - Pass Details

Date: 22 February 2026
Orbit: 872 x 984 km, 66.8° (Epoch: 6 March)

Event Time Altitude Azimuth Distance (km) Brightness Sun altitude
Rises 01:47:48 0° 331° (NNW) 3,604 11.4 -28.5°
Reaches altitude 10° 01:50:20 10° 328° (NNW) 2,672 10.7 -29.1°
Maximum altitude 01:56:31 66° 248° (WSW) 1,046 8.2 -30.4°
Enters shadow 01:57:49 53° 195° (SSW) 1,170 8.3 -30.7°
Drops below altitude 10° 02:02:49 10° 167° (SSE) 2,717 - -31.7°
Sets 02:05:24 0° 165° (SSE) 3,668 - -32.3°
